Location: Winthrop
(48.4780°N, 120.1850°W)
Time: 02:29:15
(UTC-07:00)

AIST 2D - Visible Passes

Search period start: 16 May 2022 00:00
Search period end: 26 May 2022 00:00
Orbit: 439 x 449 km, 97.1° (Epoch: 16 May)

Date Brightness Start Highest point End Pass type
(mag) Time Alt. Az. Time Alt. Az. Time Alt. Az.
16 May ? 22:20:10 10° NNE 22:23:23 38° E 22:24:32 28° SE visible
16 May ? 23:53:37 10° NNW 23:55:46 16° WNW 23:57:54 10° WSW visible
17 May ? 21:44:24 10° NE 21:46:22 15° E 21:47:30 13° ESE visible
17 May ? 23:16:02 10° N 23:19:15 39° WNW 23:21:02 21° SW visible
18 May ? 22:39:07 10° NNE 22:42:30 69° E 22:43:57 31° S visible
19 May ? 00:14:13 10° NW 00:14:39 10° WNW 00:15:04 10° WNW visible
19 May ? 22:02:45 10° NE 22:05:33 24° E 22:06:51 19° SE visible
19 May ? 23:35:23 10° NNW 23:38:10 24° WNW 23:40:23 13° WSW visible
20 May ? 22:58:06 10° N 23:01:28 66° WNW 23:03:14 25° SSW visible
21 May ? 22:21:21 10° NNE 22:24:33 39° E 22:26:04 24° SSE visible
21 May ? 23:54:51 10° NNW 23:56:55 15° WNW 23:58:57 10° WSW visible
22 May ? 21:45:23 10° NE 21:47:25 15° E 21:48:52 12° ESE visible
22 May ? 23:17:06 10° N 23:20:15 37° WNW 23:22:24 17° SW visible
23 May ? 22:40:01 10° NNE 22:43:23 71° ESE 22:45:10 25° S visible
24 May ? 22:03:28 10° NE 22:06:17 24° E 22:07:55 17° SE visible
24 May ? 23:36:09 10° NNW 23:38:53 23° WNW 23:41:26 11° WSW visible
25 May ? 22:58:42 10° N 23:02:03 64° WNW 23:04:08 21° SSW visible
